This demonstration page uses our WeatherBlox Daily Observations layout. Learn more.

Left ArrowRight Arrow

39.01783, -85.05884

Hourly Observations for June 18, 2015

Temp ( °F °C ) Dew Point ( °F °C ) Humidity (%) Winds ( mph kmh ) Pressure ( in mb ) Visibility ( mi km ) Precip ( " mm )
12:52 am 00:52 Cloudy 73 22.8 71 21.7 94 94 S 6 9 30.01 1016 10 16 N/A
1:52 am 01:52 Mostly Cloudy 73 22.8 71 21.7 94 94 S 6 9 30.01 1016 9 14 N/A
2:52 am 02:52 Mostly Cloudy 72 22.2 70 21.1 94 94 SSW 6 9 30.01 1016 9 14 N/A
3:52 am 03:52 Mostly Clear 72 22.2 69 20.6 91 91 SW 7 11 30.01 1016 10 16 N/A
4:52 am 04:52 Partly Cloudy 71 21.7 69 20.6 94 94 SW 5 7 30.00 1016 10 16 N/A
5:52 am 05:52 Partly Cloudy 71 21.7 69 20.6 94 94 SW 6 9 30.00 1016 10 16 N/A
6:52 am 06:52 Partly Cloudy 71 21.7 69 20.6 94 94 SW 3 6 30.02 1017 8 13 N/A
7:52 am 07:52 Partly Cloudy 73 22.8 70 21.1 90 90 SW 6 9 30.02 1017 9 14 N/A
8:52 am 08:52 Mostly Cloudy 75 23.9 70 21.1 84 84 SW 7 11 30.02 1017 10 16 N/A
9:52 am 09:52 Mostly Cloudy 78 25.6 70 21.1 76 76 WSW 6 9 30.03 1017 10 16 N/A
10:52 am 10:52 Mostly Cloudy 81 27.2 70 21.1 69 69 W 8 13 30.03 1017 10 16 N/A
11:52 am 11:52 Mostly Cloudy 84 28.9 71 21.7 65 65 W 13 20 30.04 1017 10 16 N/A
12:52 pm 12:52 Mostly Cloudy 85 29.4 71 21.7 63 63 SW 10 17 30.04 1017 10 16 N/A
1:52 pm 13:52 Mostly Cloudy 87 30.6 71 21.7 59 59 W 9 15 30.01 1016 10 16 N/A
2:32 pm 14:32 Mostly Cloudy with Thunderstorms 86 30 70 21 59 59 SW 6 9 29.97 1015 10 16 N/A
2:52 pm 14:52 Mostly Cloudy with Thunderstorms 86 30 72 22.2 63 63 SSW 9 15 29.99 1016 10 16 N/A
2:56 pm 14:56 Mostly Cloudy 84 29 72 22 66 66 SSW 8 13 29.97 1015 10 16 N/A
3:52 pm 15:52 Cloudy with Light Rain 84 28.9 72 22.2 67 67 SSW 7 11 29.97 1015 10 16 N/A
4:52 pm 16:52 Cloudy with Light Rain 79 26.1 69 20.6 72 72 SSW 7 11 29.98 1015 10 16 N/A
5:52 pm 17:52 Cloudy with Light Rain 76 24.4 72 22.2 88 88 SSE 6 9 29.94 1014 8 13 0.03 0.76
6:52 pm 18:52 Cloudy 77 25 71 21.7 82 82 N 9 15 30.00 1016 9 14 N/A
7:23 pm 19:23 Cloudy with Light Thunderstorms 75 24 66 19 74 74 N N/A 30.03 1017 10 16 N/A
7:41 pm 19:41 Cloudy with Thunderstorms 73 23 68 20 83 83 WSW 10 17 30.03 1017 1 2 0.02 0.51
7:46 pm 19:46 Cloudy with Heavy Thunderstorms 72 22 70 21 94 94 WSW 8 13 30.06 1018 1 1 N/A
7:52 pm 19:52 Cloudy with Heavy Thunderstorms 72 22.2 69 20.6 91 91 S 9 15 30.07 1018 1 1 0.67 17.02
8:05 pm 20:05 Cloudy with Thunderstorms 72 22 70 21 94 94 S 15 24 30.06 1018 3 4 0.55 13.97
8:11 pm 20:11 Cloudy with Light Thunderstorms 72 22 70 21 94 94 S 13 20 30.06 1018 4 6 0.57 14.48
8:33 pm 20:33 Cloudy with Thunderstorms 72 22 70 21 94 94 S 9 15 30.06 1018 3 5 0.63 16.00
8:52 pm 20:52 Cloudy with Heavy Thunderstorms 71 21.7 69 20.6 94 94 S 9 15 30.07 1018 3 5 0.74 18.80
9:10 pm 21:10 Cloudy with Light Rain 70 21 70 21 100 100 N N/A 30.03 1017 5 8 N/A
9:52 pm 21:52 Cloudy with Light Rain 70 21.1 69 20.6 97 97 S 6 9 30.02 1017 9 14 0.15 3.81
10:52 pm 22:52 Cloudy with Light Rain 70 21.1 69 20.6 97 97 S 3 6 30.00 1016 10 16 N/A
11:52 pm 23:52 Cloudy 70 21.1 69 20.6 97 97 SSW 6 9 30.02 1017 10 16 N/A

Powered by AerisWeather